User: anonymous   Login
Location: Unspecified
(0.0000°N, 0.0000°E)
Time: 09:12:06
(UTC+00:00)
Language:

TIGRISAT - Orbit

View from above orbital plane
View from above orbital plane
View from above satellite
View from above satellite

Ground track
Ground track

The orbit data is extracted from the following two-line orbital elements,

1 40043U 14033AK  19082.88399831 +.00000105 +00000-0 +22923-4 0  9999
2 40043 097.7708 314.3553 0060542 018.3349 342.0023 14.74238077255515
Epoch (UTC): 23 March 2019 21:12:57
Eccentricity: 0.0060542
inclination: 97.7708°
perigee height: 605 km
apogee height: 690 km
right ascension of ascending node: 314.3553°
argument of perigee: 18.3349°
revolutions per day: 14.74238077
mean anomaly at epoch: 342.0023°
orbit number at epoch: 25551

The dashed part of the orbit path shows where the satellite is in the earth's shadow,  

DLR